Regional Weather Roundup
Issued by NWS

Home | Current Version | Previous Version | Graphics & Text | Print | Product List | Glossary Off
Versions: 1 2 3 4 5 6 7 8 9 10 11 12 13 14 15 16 17 18 19 20 21 22 23 24 25 26 27 28 29 30 31 32 33 34 35 36 37 38 39 40 41 42 43 44 45 46 47 48 49 50

015
ASUS43 KMKX 232110
RWRWI

WISCONSIN REGIONAL WEATHER ROUNDUP
NATIONAL WEATHER SERVICE MILWAUKEE/SULLIVAN WI
300 PM CST TUE JAN 23 2018

NOTE: "FAIR" INDICATES FEW OR NO CLOUDS BELOW 12,000 FEET WITH NO
SIGNIFICANT WEATHER AND/OR OBSTRUCTIONS TO VISIBILITY.

WIZ001-002-006>008-014>016-023>028-232200-
NORTHWEST WISCONSIN

CITY           SKY/WX    TMP DP  RH WIND       PRES   REMARKS
SUPERIOR ARPT  FAIR      24   8  50 CALM      30.09R
ASHLAND        CLOUDY    23  15  71 N7        30.07R WCI  15
HAYWARD        CLOUDY    22  13  68 N6        30.04R WCI  14
SIREN          FAIR      21   8  57 NW6       30.08R WCI  14
CUMBERLAND     CLOUDY    18  10  73 NW7       30.05R WCI   8
RICE LAKE      CLOUDY    19  13  77 NW5       30.06S WCI  13
CHETEK         CLOUDY    19  14  79 NW5       30.05R WCI  13
LADYSMITH      CLOUDY    23  16  75 N6        30.03R WCI  15
EAU CLAIRE     CLOUDY    19  14  81 NW10      30.05R WCI   7
MENOMONIE      FAIR      22  14  72 N9        30.06R WCI  12
NEW RICHMOND   FAIR      20  10  62 NW8       30.08R WCI  11
OSCEOLA        FAIR      22  11  62 N7        30.11R WCI  13
$$

WIZ003>005-009-010-017-018-232200-
NORTH CENTRAL WISCONSIN

CITY           SKY/WX    TMP DP  RH WIND       PRES   REMARKS
MANITOWISH WTR FLURRIES  19  18  95 NW7       29.97R WCI  10
ARBOR VITAE    FLURRIES  22  19  87 NW9       29.96R WCI  11
WOODRUFF       FLURRIES  22  19  87 NW9       29.96R WCI  11
RHINELANDER    CLOUDY    21  15  78 N7G17     29.95R WCI  12
EAGLE RIVER    FLURRIES  19  16  90 N9        29.93R WCI   8
LAND O LAKES   FLURRIES  19  16  90 N10       29.96R WCI   7
PHILLIPS       CLOUDY    19  17  90 N8        29.98R WCI   9
TOMAHAWK       CLOUDY    21  16  81 NW9       29.97R WCI  10
MEDFORD        CLOUDY    21  16  80 NW10      29.97R WCI  10
MERRILL        CLOUDY    24  17  74 N12       29.96R WCI  13
$$

WIZ029-030-035-036-043>047-232200-
CENTRAL WISCONSIN

CITY           SKY/WX    TMP DP  RH WIND       PRES   REMARKS
WAUSAU         FAIR      25  17  72 N10G20    29.94R WCI  15
MOSINEE        PTSUNNY   25  19  80 NW9G16    29.96R WCI  15
MARSHFIELD     CLOUDY    23  17  78 NW16      29.96R WCI  10
STEVENS POINT  CLOUDY    24  18  78 N9        29.97R WCI  14
WAUPACA        CLOUDY    31  21  66 W9        29.96R WCI  23
WAUTOMA        CLOUDY    27  20  75 NW12      29.98R WCI  17
WISC RAPIDS    CLOUDY    24  16  71 NW13      29.99R WCI  12
CAMP DOUGLAS   CLOUDY    25  21  86 NW15      30.00R WCI  12
$$

WIZ011>013-019>022-031-037>040-048>050-232200-
NORTHEAST WISCONSIN

CITY           SKY/WX    TMP DP  RH WIND       PRES   REMARKS
ANTIGO         CLOUDY    22  17  80 NW13      29.93R WCI  10
SHAWANO        CLOUDY    31  21  67 N9        29.93R WCI  22
OCONTO         CLOUDY    26  19  73 N12G20    29.93R WCI  16
STURGEON BAY   CLOUDY    26  20  77 N20       29.91R WCI  12
GREEN BAY      CLOUDY    28  21  75 NW13      29.94R WCI  17
MANITOWOC      CLOUDY    29  22  75 NW17      29.92R WCI  17
APPLETON       CLOUDY    27  19  74 NW9       29.93R WCI  17
CLINTONVILLE   CLOUDY    28  19  69 NW8       29.94R WCI  20
OSHKOSH        CLOUDY    28  20  71 NW12      29.94R WCI  18
$$

WIZ032>034-041-042-053>061-232200-
SOUTHWEST WISCONSIN

CITY           SKY/WX    TMP DP  RH WIND       PRES   REMARKS
LA CROSSE      CLOUDY    24  18  77 NW12      30.05R WCI  13
SPARTA         CLOUDY    24  20  87 NW8       30.04R WCI  14
VIROQUA        CLOUDY    22  21  96 NW8       29.99R WCI  13
BOSCOBEL       CLOUDY    27  20  75 NW8       30.04R WCI  19
PRAIRIE DU CHI CLOUDY    25  19  76 N9        30.05R WCI  16
PLATTEVILLE    CLOUDY    27  26  96 NW10      30.01R WCI  17
$$

WIZ056-057-062-063-064-067-068-232200-
SOUTH CENTRAL WISCONSIN

CITY           SKY/WX    TMP DP  RH WIND       PRES   REMARKS
REEDSBURG      CLOUDY    25  22  89 NW7       30.00R WCI  17
BARABOO/DELLS  CLOUDY    25  21  85 NW10G17   29.98R WCI  15
LONE ROCK      CLOUDY    27  22  81 W13       30.02R WCI  16
MINERAL POINT  CLOUDY    28  28 100 NW13      29.99R WCI  18
MADISON        CLOUDY    26  22  84 NW9       29.98R WCI  17
MIDDLETON      CLOUDY    28  24  85 N15G21    29.99R WCI  16
WATERTOWN      CLOUDY    27  24  88 NW10      29.95R WCI  17
MONROE         CLOUDY    28  25  86 NW8G17    29.97R WCI  20
JANESVILLE     CLOUDY    28  28 100 NW15      29.96R WCI  17
$$

WIZ051-052-058>065-066-070>072-232200-
SOUTHEAST WISCONSIN

CITY           SKY/WX    TMP DP  RH WIND       PRES   REMARKS
MILWAUKEE      CLOUDY    30  24  78 NW13      29.92R WCI  20
WAUKESHA       CLOUDY    27  21  80 NW12      29.93R WCI  16
MILWAUKEE/TIMM CLOUDY    28  21  74 NW14      29.92R WCI  17
RACINE         CLOUDY    29  24  82 NW9       29.94R WCI  20
BURLINGTON     CLOUDY    28  23  81 NW9G18    29.94R WCI  19
KENOSHA        CLOUDY    29  22  75 NW12      29.93R WCI  19
FOND DU LAC    CLOUDY    29  20  69 NW13      29.94R WCI  19
SHEBOYGAN      CLOUDY    29  22  75 N14G21    29.91R WCI  18
WEST BEND      CLOUDY    28  23  80 NW14      29.92R WCI  17
JUNEAU         CLOUDY    27  22  82 NW6       29.96R WCI  20
$$

LSZ147-162-232200-
LAKE SUPERIOR

STATION/POSITION TIME  TEMP    WIND        PRES    WAVE
                       AIR SEA DIR/SP/G            HT/PER
                 (UTC) (F)     (DEG/KT/KT) (MB)    (FT/S)
DEVILS ISLAND    2100   24     280/  4/  5 1019.5R
SAXON HARBOR     2030   24     360/  8/ 11 1017.3R
$$

LMZ867-665-643>646-232200-
LAKE MICHIGAN

STATION/POSITION TIME  TEMP    WIND        PRES    WAVE
                       AIR SEA DIR/SP/G            HT/PER
                 (UTC) (F)     (DEG/KT/KT) (MB)    (FT/S)
NORTHPORT PIER   2100   24     330/  9/ 14 1012.9
KEWAUNEE LAKESHO 2042   28     330/ 10/ 20 1011.4R
SHEBOYGAN LAKESH 2100   29     320/ 15/ 19 1013.8R
PORT WASHINGTON  2030   30     340/ 10/ 16 1013.9R
MILWAUKEE LAKESH 2050   29     320/ 11/ 18   N/A
KENOSHA   LAKESH 2100   28     310/ 11/ 14 1013.9
$$

TC  - TEMPERATURE IN CELSIUS
VSB - VISIBILITY IN STATUTE MILES
WCI - WIND CHILL INDEX
HX  - HEAT INDEX





USA.gov is the U.S. government's official web portal to all federal, state and local government web resources and services.